Home > Weather > Yuzhno-Sakhalinsk > Past weeks

Flag for Russia Past Weather in Yuzhno-Sakhalinsk, Russia — Yesterday and Last 2 Weeks

Now
73 °F

Partly sunny.


Feels Like: 70 °F
Forecast: 67 / 79 °F
Wind: 17 mph from South

Location: Yuzhno Airport-Sakhalinsk

Current Time: Jul 30, 2016 at 6:37:35 PM

Latest Report: Jul 30, 2016 at 6:00 PM


Visibility: N/A

Pressure: 29.80 "Hg

Humidity: 94%

Dew Point: 72 °F

Location of Yuzhno-SakhalinskLocation

Past Weather in Yuzhno-Sakhalinsk — Graph

°F

Yuzhno-Sakhalinsk Temperature Yesterday

Maximum temperature yesterday: 70 °F (at 1:00 PM)
Minimum temperature yesterday: 61 °F (at 12:00 AM)
Average temperature yesterday: 65 °F

High & Low Weather Summary for the Past Weeks

 TemperatureHumidityPressure
High79 °F (Jul 30, 3:30 PM)100% (Jul 16, 12:00 AM)30.07 "Hg (Jul 16, 12:00 AM)
Low48 °F (Jul 19, 5:00 AM)57% (Jul 18, 1:00 PM)29.71 "Hg (Jul 15, 5:00 PM)
Average64 °F89%29.91 "Hg
* Reported Jul 15 5:00 PM — Jul 30 5:30 PM, Yuzhno-Sakhalinsk, Weather by CustomWeather, © 2016

Note: Actual official high and low records may vary slightly from our data, if they occured in-between our weather recording intervals... More about our weather records

Advertising

Yuzhno-Sakhalinsk Weather History for the Previous 24 Hours

Scroll right to see more
 ConditionsComfort  
Time TempWeatherWind HumidityBarometerVisibility
5:30 PM
Sat, Jul 30
77 °FScattered clouds.17 mph83%29.77 "HgN/A
5:00 PM77 °FScattered clouds.15 mph83%29.77 "HgN/A
4:30 PM79 °FScattered clouds.15 mph79%29.77 "HgN/A
4:00 PM79 °FScattered clouds.17 mph79%29.77 "HgN/A
3:30 PM79 °FScattered clouds.15 mph84%29.80 "HgN/A
3:00 PM77 °FScattered clouds.15 mph83%29.80 "HgN/A
2:30 PM75 °FScattered clouds.10 mph89%29.80 "HgN/A
2:00 PM77 °FScattered clouds.10 mph89%29.80 "HgN/A
1:30 PM77 °FPartly sunny.13 mph89%29.80 "HgN/A
1:00 PM77 °FPartly sunny.6 mph83%29.80 "HgN/A
12:30 PM75 °FPartly sunny.6 mph89%29.80 "HgN/A
12:00 PM73 °FPartly sunny.6 mph94%29.80 "HgN/A
11:30 AM72 °FPartly sunny.3 mph94%29.80 "Hg6 mi
11:00 AM70 °FFog.6 mph100%29.80 "Hg2 mi
10:30 AM66 °FSprinkles. Fog.6 mph100%29.80 "Hg1 mi
10:00 AM66 °FRain. Cloudy.8 mph100%29.80 "Hg1 mi
9:30 AM66 °FRain. Cloudy.8 mph100%29.80 "Hg1 mi
9:00 AM66 °FSprinkles. Dense fog.10 mph100%29.77 "Hg1 mi
8:30 AM68 °FSprinkles. Fog.6 mph100%29.77 "Hg2 mi
8:00 AM68 °FRain showers. Fog.6 mph100%29.77 "Hg1 mi
7:30 AM68 °FSprinkles. Fog.6 mph100%29.77 "Hg2 mi
7:00 AM68 °FSprinkles. Fog.3 mph100%29.77 "Hg2 mi
6:30 AM68 °FSprinkles. Fog.6 mph100%29.77 "Hg2 mi
6:00 AM68 °FMostly cloudy.3 mph100%29.77 "HgN/A
5:00 AM66 °FSprinkles. Fog.6 mph100%29.77 "Hg1 mi
4:00 AM68 °FSprinkles. Fog.3 mph100%29.77 "Hg1 mi
3:00 AM66 °FSprinkles. Fog.3 mph100%29.77 "Hg3 mi
2:00 AM64 °FSprinkles. Fog.No wind100%29.80 "Hg3 mi
1:00 AM64 °FSprinkles. Fog.1 mph100%29.80 "Hg2 mi
12:00 AM64 °FSprinkles. Fog.1 mph100%29.83 "Hg2 mi
11:00 PM
Fri, Jul 29
64 °FFog.No wind100%29.83 "Hg2 mi
10:30 PM64 °FSprinkles. Fog.1 mph100%29.83 "Hg2 mi
10:00 PM64 °FRain. Fog.1 mph100%29.83 "Hg1 mi
9:30 PM64 °FRain. Fog.1 mph100%29.83 "Hg2 mi
9:00 PM64 °FFog.3 mph100%29.83 "Hg1 mi
8:30 PM64 °FRain. Fog.3 mph100%29.83 "Hg2 mi
8:00 PM64 °FFog.3 mph100%29.83 "Hg3 mi
7:30 PM64 °FLow clouds.3 mph100%29.83 "HgN/A
7:00 PM66 °FLow clouds.3 mph100%29.83 "HgN/A
6:30 PM66 °FLow clouds.8 mph100%29.83 "HgN/A
6:00 PM68 °FLow clouds.6 mph94%29.83 "HgN/A
Weather by CustomWeather, © 2016

See weather overviewHow to use our weather pages